Location: Taukkyan
(23.1052°N, 94.0030°E)
Time: 11:11:40
(UTC+00:00)

NATO 3D Rocket - Pass Details

Date: 06 July 2020
Orbit: 670 x 2296 km, 21.5° (Epoch: 14 August)

Event Time Altitude Azimuth Distance (km) Brightness Sun altitude
Exits shadow 21:46:42 18° 267° (W) 2,458 5.6 -16.3°
Maximum altitude 21:52:13 78° 183° (S) 932 3.8 -15.3°
Drops below altitude 10° 21:57:31 10° 97° (E) 2,282 6.7 -14.3°
Sets 21:59:41 0° 96° (E) 3,110 7.5 -13.8°
